Showing default

COSMOS 2434 (GLONASS), 32393

Orbit data source: Space-Track

COSMOS 2434 (GLONASS), 32393 is a Commonwealth of Independent States-origin payload satellite in MEO that was launched on Tue, 25 Dec 2007 UTC via a PROTON-M/DM-2 launch vehicle from the Tyuratam Missile And Space Complex (TTMTR). Payload-class satellites include a variety of spacecraft equipped with specific instruments for various scientific and technological missions. These include communications satellites like Starlink; space stations such as the ISS; scientific satellites like the Hubble; Earth observation satellites from companies like Planet Labs, Umbra, and HawkEye 360; GPS; miniature CubeSats for education and research; and military/defense satellites.

Loading next visibility...
Identifier
32393, 2007-065A
Orbit
MEO
Country
Flag of CISCIS
Related business
Manufacturer
Resehetnev ISS
Mission
Operational Defense Navigation
Bus & Motor
URAGAN, Unknown motor
Mass
1,450 kg wet, ~1,200 kg dry
Launch date (UTC)
2007-12-25 (18 years ago)
Launch vehicle
PROTON-M/DM-2
Launch site
Tyuratam Missile And Space Complex (TTMTR)
Object type
Payload
Rocket body
Debris
Shape & HBR
Cyl + 1 Ant + 2 Pan, 3.9 m
Radar Cross Section
8.467 m², Large (>1 m²)

Expand to show TLE details & history
Last TLE update: 1 day ago

TLE from 1 day ago
0 COSMOS 2434 (GLONASS)
1 32393U 07065A   26172.51713199  .00000077  00000-0  00000+0 0  9995
2 32393  64.3181 191.7698 0001204 331.4044 208.5317  2.13101233143866
Epoch: 2026-06-21T12:24Z
TLE epoch observation values (Epoch: 2026-06-21T12:24:40.203Z)
Latitude
0.04902°
Longitude
-84.13518°
Altitude
19,133.184 km
Speed
3.953 km/s
True Right ascension
00h 46m 59s
True Declination
0° 02' 56"
Sunlit
Object was in daylight at epoch
Visualization orbit readout
Latitude
Unknown
Longitude
Unknown
Altitude
Unknown
Speed
Unknown
Apparent Right ascension
Unknown
Apparent Declination
Unknown
Sunlit
N/A
Visualization observer readout
Local Sidereal Time
00:39:47
Azimuth
Unknown
Elevation
Unknown
Doppler factor
Unknown
Orbital elements
Apogee altitude
19,132.659 km
Perigee altitude
19,126.516 km
Semi-major axis
25,507.724 km
Eccentricity
0.00012
Inclination
64.3181°
RAAN
191.7698°
Arg. of periapsis
331.4044°
True anomaly
208.52511°
Mean anomaly
208.5317°
Eccentric anomaly
208.52841°
Mean motion
0.53276 °/min
Orbital period
675.72 mins
BSTAR
0
Loading maneuver chart data...
Computing Atmospheric mass density...
Loading historical data...
Loading historical data...
Loading historical data...
Loading historical data...
Loading historical data...
Loading historical data...
Loading historical data...

Documentation

Showing up to 5 results
|